User: anonymous   Login
Location: Dortmund
(51.5019°N, 7.6520°E)
Time: 14:44:35
(UTC+01:00)
Language:

ISS - Orbit

View from above orbital plane
View from above orbital plane
View from above satellite
View from above satellite

Ground track
Ground track

The orbit data is extracted from the following two-line orbital elements,

1 25544U 98067A   17325.05894654  .00016717  00000-0  10270-3 0  9062
2 25544  51.6382 336.2969 0003862 139.4686 220.6755 15.54211249  6143
Epoch (UTC): 21 November 2017 01:24:52
Eccentricity: 0.0003862
inclination: 51.6382°
perigee height: 402 km
apogee height: 407 km
right ascension of ascending node: 336.2969°
argument of perigee: 139.4686°
revolutions per day: 15.54211249
mean anomaly at epoch: 220.6755°
orbit number at epoch: 614

The dashed part of the orbit path shows where the satellite is in the earth's shadow,  

DLR